SCP
0 0 0 0 0 0 0 0 0 0 0 0 0 0 0 0 0 0 0 0 0 0 0 0 0 0 0 0 0 0 0 0 0 0 0 0 0 0
0 0 0 0 0 0 0 0 0 0 0 0 0 0 0 0 0 0 0 0 0 0 0 0 0 0 0 0 0 0 0 0 0 0 0 0 0 0
0 0 0 0 0 0 0 0 0 0 0 0 0 0 0 0 0 0 0 0 0 0 0 0 0 0 0 0 0 0 0 0 0 0 0 0 0 0
0 0 0 0 0 0 0 0 0 0 0 0 0 0 0 0 0 0 0 0 0 0 0 0 0 0 0 0 0 0 0 0 0 0 0 0 0 0
0 0 0 0 0 0 0 0 0 0 0 0 0 0 0 0 0 0 0 0 0 0 0 0 0 0 0 0 0 0 0 0 0 0 0 0 0 0
0 0 0 0 0 0 0 0 0 0 0 0 0 0 0 0 0 0 0 0 0 0 0 0 0 0 0 0 0 0 0 0 0 0 0 0 0 0
0 0 0 0 0 0 0 0 0 0 0 0 0 0 0 0 0 0 0 0 0 0 0 0 0 0 0 0 0 0 0 0 0 0 0 0 0 0
0 0 0 0 0 0 0 0 0 0 0 0 0 0 0 0 0 0 0 0 0 0 0 0 0 0 0 0 0 0 0 0 0 0 0 0 0 0
0 0 0 0 0 0 0 0 0 0 0 0 0 0 0 0 0 0 0 0 0 0 0 0 0 0 0 0 0 0 0 0 0 0 0 0 0 0
0 0 0 0 0 0 0 0 0 0 0 0 0 0 0 0 0 0 0 0 0 0 0 0 0 0 0 0 0 0 0 0 0 0 0 0 0 0
0 0 0 0 0 0 0 0 0 0 0 0 0 0 0 0 0 0 0 0 0 0 0 0 0 0 0 0 0 0 0 0 0 0 0 0 0 0
0 0 0 0 0 0 0 0 0 0 0 0 0 0 0 0 0 0 0 0 0 0 0 0 0 0 0 0 0 0 0 0 0 0 0 0 0 0
0 0 0 0 0 0 0 0 0 0 0 0 0 0 0 0 0 0 0 0 0 0 0 0 0 0 0 0 0 0 0 0 0 0 0 0 0 0
0 0 0 0 0 0 0 0 0 0 0 0 0 0 0 0 0 0 0 0 0 0 0 0 0 0 0 0 0 0 0 0 0 0 0 0 0 0
0 0 0 0 0 0 0 0 0 0 0 0 0 0 0 0 0 0 0 0 0 0 0 0 0 0 0 0 0 0 0 0 0 0 0 0 0 0
0 0 0 0 0 0 0 0 0 0 0 0 0 0 0 0 0 0 0 0 0 0 0 0 0 0 0 0 0 0 0 0 0 0 0 0 0 0
0 0 0 0 0 0 0 0 0 0 0 0 0 0 0 0 0 0 0 0 0 0 0 0 0 0 0 0 0 0 0 0 0 0 0 0 0 0
0 0 0 0 0 0 0 0 0 0 0 0 0 0 0 0 0 0 0 0 0 0 0 0 0 0 0 0 0 0 0 0 0 0 0 0 0 0
0 0 0 0 0 0 0 0 0 0 0 0 0 0 0 0 0 0 0 0 0 0 0 0 0 0 0 0 0 0 0 0 0 0 0 0 0 0
0 0 0 0 0 0 0 0 0 0 0 0 0 0 0 0 0 0 0 0 0 0 0 0 0 0 0 0 0 0 0 0 0 0 0 0 0 0
0 0 0 0 0 0 0 0 0 0 0 0 0 0 0 0 0 0 0 0 0 0 0 0 0 0 0 0 0 0 0 0 0 0 0 0 0 0
0 0 0 0 0 0 0 0 0 0 0 0 0 0 0 0 0 0 0 0 0 0 0 0 0 0 0 0 0 0 0 0 0 0 0 0 0 0
0 0 0 0 0 0 0 0 0 0 0 0 0 0 0 0 0 0 0 0 0 0 0 0 0 0 0 0 0 0 0 0 0 0 0 0 0 0
Wind_Speed
15 15 14 12 11 12 11 11 11 12 12 8 8 9 10 10 17 13 11 22 28 28 28 28 28 28 27 26 26 25 24 23 23 23 23 23 23 23
11 13 15 12 11 11 11 11 12 13 14 5 7 6 9 10 17 13 12 25 29 28 28 28 28 28 27 27 26 26 25 24 24 25 25 25 25 25
13 14 16 14 13 11 11 12 13 12 18 13 6 7 11 11 11 10 10 12 12 26 27 28 28 27 27 27 27 27 26 26 25 25 26 26 26 25
14 14 16 13 16 13 12 14 14 14 16 20 8 7 11 10 10 10 10 11 10 21 27 28 27 27 27 27 27 27 26 26 26 26 26 26 26 26
13 14 15 14 15 13 14 14 12 13 14 16 13 6 7 7 8 9 11 9 10 15 23 26 27 28 28 28 28 27 26 27 27 26 26 26 26 26
12 13 13 14 15 14 13 14 12 13 12 14 13 8 7 5 7 8 9 8 10 10 15 18 21 26 28 28 28 27 27 27 27 27 27 26 26 26
12 13 14 17 21 17 13 11 12 12 12 13 13 10 9 7 8 7 11 8 9 8 8 9 9 9 11 20 24 25 26 26 26 26 26 25 26 26
12 12 13 16 20 26 27 25 20 16 15 14 13 14 12 11 9 9 9 8 8 7 9 10 9 10 8 8 18 24 24 25 25 25 25 26 26 27
11 10 10 11 17 12 19 25 24 27 25 17 17 16 12 11 11 12 11 10 11 6 7 8 8 10 8 12 23 25 26 26 26 26 26 27 27 28
10 11 11 11 11 13 11 12 13 14 16 13 12 12 11 10 12 13 12 11 8 6 8 7 6 9 9 8 20 24 25 25 26 26 27 27 28 29
10 11 12 11 18 22 14 12 13 12 18 23 21 18 20 21 16 10 10 9 9 8 9 7 5 7 7 8 13 23 24 25 25 26 27 27 27 28
9 10 17 17 19 21 13 11 13 11 9 9 12 14 13 15 21 14 11 10 6 6 8 8 6 5 5 6 8 9 12 20 25 25 26 26 27 17
9 7 8 18 21 21 18 11 14 12 8 9 8 7 6 6 7 8 9 9 9 6 6 8 6 6 6 4 4 7 8 9 10 14 20 26 27 23
9 8 9 19 20 21 15 14 18 15 6 6 7 7 7 7 6 7 8 9 9 8 7 7 6 7 7 7 6 5 6 7 9 10 10 18 23 28
9 16 18 20 19 13 14 17 13 6 5 6 7 7 7 6 5 5 6 6 8 8 8 8 8 7 7 8 7 6 6 7 9 11 11 11 12 12
11 14 19 18 13 12 11 8 4 4 5 6 6 5 5 5 6 6 6 5 5 6 7 10 10 10 9 10 9 9 9 7 6 8 10 11 11 12
11 6 5 5 5 5 4 4 4 4 5 4 4 4 5 6 6 5 5 5 5 5 5 5 7 8 10 8 9 11 11 11 11 10 11 14 14 14
13 5 6 6 6 5 5 4 4 5 4 4 4 4 5 5 5 4 4 5 6 6 6 5 4 3 4 8 15 14 12 12 11 11 12 14 16 13
8 5 6 6 5 5 4 4 4 4 4 4 4 4 4 4 4 5 5 5 6 6 6 5 5 6 9 11 9 15 13 11 11 11 12 14 17 14
5 6 6 5 4 4 4 4 4 3 3 3 4 4 4 4 4 5 5 6 6 6 6 6 7 9 11 11 9 8 16 14 12 13 13 14 16 20
6 5 5 4 4 4 4 3 3 3 3 3 3 4 4 4 4 5 5 9 8 6 8 8 9 14 9 7 11 10 10 18 20 15 14 14 16 16
6 5 5 4 3 3 3 3 3 3 3 3 3 3 3 4 5 5 5 5 6 7 8 8 6 6 7 11 14 14 13 11 17 27 29 26 18 16
6 5 4 4 3 3 3 3 3 3 3 3 3 3 4 4 4 5 5 6 6 7 8 8 7 7 9 11 13 14 16 15 12 13 14 22 31 35
Wind_Direction
236 235 235 236 231 230 229 224 238 263 265 217 207 212 216 220 230 231 228 240 245 246 245 244 244 244 245 247 248 250 253 255 257 258 258 258 259 260
238 237 237 236 234 230 229 228 226 240 263 235 205 198 210 220 230 230 227 237 244 247 247 246 245 245 245 246 247 249 250 252 254 255 256 256 257 258
243 240 240 235 235 232 229 229 230 230 252 258 206 202 205 218 229 227 223 231 239 245 248 248 246 246 246 246 247 248 249 251 253 254 255 256 257 258
247 244 244 239 237 234 231 231 231 228 239 258 243 207 215 216 221 226 227 228 227 241 247 249 248 248 248 247 248 248 249 251 252 254 255 257 258 259
250 246 246 240 242 237 233 233 232 232 233 248 253 218 218 214 220 229 232 232 228 237 244 248 249 250 250 249 247 247 249 250 251 252 253 255 258 260
252 248 247 241 242 239 237 236 232 233 234 241 250 236 220 199 207 221 232 227 233 233 240 242 247 250 251 250 248 249 250 250 250 251 252 253 256 259
254 248 247 247 246 245 240 236 230 232 233 238 245 241 226 204 212 212 230 228 229 223 229 236 242 244 246 251 251 251 250 250 250 252 253 255 257 259
257 253 249 256 258 258 255 247 232 227 229 232 238 238 232 220 215 216 222 225 234 206 219 231 225 234 234 233 245 249 251 252 253 253 254 256 258 259
260 259 258 253 259 250 256 260 256 247 235 226 234 235 230 217 214 219 217 218 225 198 195 228 220 230 228 235 241 243 246 248 251 253 254 256 257 258
263 260 259 257 252 253 245 246 248 253 253 245 237 234 228 219 213 217 220 227 232 214 197 225 216 227 229 228 241 244 245 247 249 252 254 256 258 259
266 260 260 257 262 266 258 248 248 248 255 253 249 243 234 229 217 213 214 219 227 220 203 217 219 225 229 229 236 243 246 248 251 253 255 257 258 260
270 262 267 268 267 267 258 250 253 248 237 246 251 255 248 238 232 215 207 214 215 216 196 201 209 202 235 228 225 231 243 250 253 255 257 259 260 261
278 273 265 275 277 274 268 254 254 252 231 230 231 233 231 228 229 222 208 211 216 216 190 186 198 200 218 233 222 220 225 235 245 253 256 259 260 260
283 278 271 278 277 274 272 265 266 264 235 222 225 221 219 219 217 214 215 216 219 218 195 187 198 204 219 239 244 226 221 229 235 244 243 253 258 260
280 282 284 285 286 280 274 275 276 263 233 230 226 221 214 210 202 203 209 215 223 225 216 206 211 216 221 238 247 245 246 242 237 243 245 245 246 249
287 285 287 287 283 279 274 273 265 253 247 238 229 217 200 195 201 200 204 204 218 230 220 216 216 217 229 237 244 251 246 246 236 237 246 250 248 245
290 275 269 269 260 256 250 247 242 249 251 235 222 211 203 203 206 200 199 197 207 220 227 221 221 224 230 233 244 248 251 251 249 249 251 256 252 248
303 288 281 272 263 254 249 247 238 236 232 223 216 209 209 207 203 194 194 202 218 227 231 226 211 223 244 246 234 248 251 253 252 248 249 258 260 252
301 286 281 275 265 252 245 242 242 232 219 217 217 212 206 204 201 203 204 212 225 232 234 223 212 224 250 261 243 228 242 253 255 253 251 254 261 261
281 279 278 273 262 252 246 243 239 228 219 218 216 210 204 203 207 210 211 216 227 235 242 234 225 227 240 258 264 251 247 252 257 260 261 260 261 265
290 285 279 271 262 255 250 243 232 227 221 213 214 210 205 205 217 219 221 234 238 240 245 247 242 247 253 260 265 260 246 250 254 258 264 267 269 267
290 287 282 272 263 256 249 241 228 221 215 215 216 213 210 212 221 225 227 236 241 244 252 259 258 255 248 256 265 272 272 262 261 265 265 262 264 266
294 289 284 278 264 250 239 230 224 223 219 219 221 221 216 222 226 230 236 241 249 255 259 266 264 254 254 257 266 272 275 275 273 269 263 262 263 265